User: anonymous   Login
Location: Unspecified
(0.0000°N, 0.0000°E)
Time: 11:45:01
(UTC+00:00)
Language:

POLYITAN 1 - Orbit

View from above orbital plane
View from above orbital plane
View from above satellite
View from above satellite

Ground track
Ground track

The orbit data is extracted from the following two-line orbital elements,

1 40042U 14033AJ  18018.21388191  .00000339  00000-0  42720-4 0  9996
2 40042  97.9169 293.9568 0013751 311.1704  48.8325 14.88283938194401
Epoch (UTC): 18 January 2018 05:07:59
Eccentricity: 0.0013751
inclination: 97.9169°
perigee height: 594 km
apogee height: 613 km
right ascension of ascending node: 293.9568°
argument of perigee: 311.1704°
revolutions per day: 14.88283938
mean anomaly at epoch: 48.8325°
orbit number at epoch: 19440

The dashed part of the orbit path shows where the satellite is in the earth's shadow,  

DLR